FW0460 Weather Reports


time (UTC)temp
C
wind
direction
speed
KPH
gust
KPH
rain 1hr
cm
rain 24hr
cm
rain mn
cm
humidity
%
barometer
mb
20260906010529 15 237 4.8 12.9 0.00 0.00 0.00 76 1021.0
20260906005525 15 240 6.4 12.9 0.00 0.00 0.00 76 1020.9
20260906004521 15 238 6.4 16.1 0.00 0.00 0.00 76 1020.8
20260906003518 15 237 4.8 12.9 0.00 0.00 0.00 76 1020.7
20260906002554 15 238 4.8 8.0 0.00 0.00 0.00 77 1020.8
20260906001550 15 248 0.0 3.2 0.00 0.00 0.00 77 1020.8
20260906000527 15 233 0.0 3.2 0.00 0.00 0.00 76 1020.7
20260905235523 16 228 1.6 8.0 0.00 0.00 0.00 76 1020.7
20260905234519 16 237 6.4 12.9 0.00 0.00 0.00 76 1020.7
20260905233516 16 236 3.2 12.9 0.00 0.00 0.00 76 1020.7
20260905232552 16 234 4.8 12.9 0.00 0.00 0.00 75 1020.7
20260905231528 16 242 4.8 12.9 0.00 0.00 0.00 75 1020.6
20260905230525 16 245 6.4 12.9 0.00 0.00 0.00 75 1020.5
20260905225521 16 241 4.8 12.9 0.00 0.00 0.00 75 1020.5
20260905224517 16 240 6.4 12.9 0.00 0.00 0.00 76 1020.4
20260905223554 16 245 3.2 8.0 0.00 0.00 0.00 76 1020.5
20260905222530 16 241 3.2 12.9 0.00 0.00 0.00 76 1020.4
20260905221547 16 242 4.8 16.1 0.00 0.00 0.00 75 1020.4
20260905220603 16 246 4.8 12.9 0.00 0.00 0.00 76 1020.3
20260905215519 16 250 6.4 16.1 0.00 0.00 0.00 75 1020.3
20260905214516 17 245 9.7 16.1 0.00 0.00 0.00 74 1020.2
20260905213532 16 247 9.7 16.1 0.00 0.00 0.00 75 1020.1
20260905212528 16 248 8.0 16.1 0.00 0.00 0.00 76 1020.2
20260905211525 16 258 4.8 12.9 0.00 0.00 0.00 76 1020.2
20260905210521 15 240 3.2 8.0 0.00 0.00 0.00 77 1020.1
20260905205518 15 280 0.0 3.2 0.00 0.00 0.00 78 1020.0
20260905204554 15 0.0 0.0 0.00 0.00 0.00 78 1020.0
20260905203611 15 0.0 0.0 0.00 0.00 0.00 78 1019.8
20260905202527 16 171 0.0 8.0 0.00 0.00 0.00 76 1019.8
20260905201524 16 238 1.6 8.0 0.00 0.00 0.00 75 1019.7
20260905200520 17 241 4.8 12.9 0.00 0.00 0.00 75 1019.7
20260905195516 17 246 4.8 12.9 0.00 0.00 0.00 76 1019.6
20260905194533 16 236 1.6 8.0 0.00 0.00 0.00 78 1019.3
20260905193549 16 229 0.0 3.2 0.00 0.00 0.00 77 1019.4
20260905192545 16 239 3.2 8.0 0.00 0.00 0.00 77 1019.5
20260905191522 17 248 3.2 8.0 0.00 0.00 0.00 77 1019.3
20260905190518 17 244 1.6 3.2 0.00 0.00 0.00 77 1019.1
20260905185535 17 0.0 3.2 0.00 0.00 0.00 77 1018.9
20260905184531 17 241 1.6 8.0 0.00 0.00 0.00 76 1018.7
20260905183607 17 237 3.2 12.9 0.00 0.00 0.00 76 1018.6
20260905182524 18 243 4.8 8.0 0.00 0.00 0.00 76 1018.4
20260905181520 18 240 6.4 12.9 0.00 0.00 0.00 76 1018.3
20260905180516 18 237 3.2 8.0 0.00 0.00 0.00 76 1018.2
20260905175533 18 239 4.8 12.9 0.00 0.00 0.00 75 1018.1
20260905174529 19 243 8.0 16.1 0.00 0.00 0.00 74 1018.1
20260905173525 19 239 8.0 16.1 0.00 0.00 0.00 73 1018.0
20260905172521 20 237 9.7 20.9 0.00 0.00 0.00 71 1017.9
20260905171517 20 236 8.0 16.1 0.00 0.00 0.00 71 1017.8
20260905170533 20 243 9.7 20.9 0.00 0.00 0.00 70 1017.8
20260905165529 20 242 9.7 20.9 0.00 0.00 0.00 69 1017.7
20260905164526 20 245 9.7 20.9 0.00 0.00 0.00 71 1017.7
20260905163522 20 244 6.4 12.9 0.00 0.00 0.00 71 1017.5
20260905162518 20 236 4.8 12.9 0.00 0.00 0.00 71 1017.5
20260905161534 20 244 3.2 12.9 0.00 0.00 0.00 71 1017.5
20260905160530 20 237 1.6 12.9 0.00 0.00 0.00 71 1017.4
20260905155526 20 233 8.0 16.1 0.00 0.00 0.00 71 1017.6
20260905154523 20 232 8.0 16.1 0.00 0.00 0.00 71 1017.7
20260905153519 20 236 4.8 12.9 0.00 0.00 0.00 70 1017.5
20260905152516 20 240 8.0 16.1 0.00 0.00 0.00 70 1017.4
20260905151552 20 65 8.0 20.9 0.00 0.00 0.00 70 1017.5
20260905150528 20 242 8.0 16.1 0.00 0.00 0.00 72 1017.5
20260905145604 20 245 9.7 16.1 0.00 0.00 0.00 73 1017.6
20260905144520 20 44 4.8 12.9 0.00 0.00 0.00 74 1017.5
20260905143516 20 47 6.4 12.9 0.00 0.00 0.00 75 1017.5
20260905142533 20 255 3.2 16.1 0.00 0.00 0.00 75 1017.4
20260905141529 20 267 6.4 16.1 0.00 0.00 0.00 74 1017.5
20260905140526 20 250 8.0 16.1 0.00 0.00 0.00 74 1017.3
20260905135522 20 298 6.4 20.9 0.00 0.00 0.00 74 1017.3
20260905134518 19 263 6.4 16.1 0.00 0.00 0.00 74 1017.3
20260905133535 18 253 4.8 12.9 0.00 0.00 0.00 75 1017.5
20260905132531 18 244 4.8 12.9 0.00 0.00 0.00 76 1017.7
20260905131528 18 291 4.8 12.9 0.00 0.00 0.00 75 1017.5
20260905130524 19 305 8.0 20.9 0.00 0.00 0.00 74 1017.8
20260905125520 20 287 14.5 24.1 0.00 0.00 0.00 69 1018.0
20260905124517 25 274 19.3 40.2 0.00 0.00 0.00 43 1017.8
20260905123534 26 273 17.7 37.0 0.00 0.00 0.00 37 1017.5
20260905122529 28 289 11.3 27.4 0.00 0.00 0.00 37 1016.9
20260905121526 28 294 9.7 27.4 0.00 0.00 0.00 36 1016.7
20260905120522 28 301 12.9 27.4 0.00 0.00 0.00 36 1016.8
20260905115519 28 299 11.3 27.4 0.00 0.00 0.00 36 1016.8
20260905114515 28 300 14.5 32.2 0.00 0.00 0.00 36 1016.7
20260905113531 29 304 16.1 37.0 0.00 0.00 0.00 35 1016.5
20260905112528 28 299 14.5 37.0 0.00 0.00 0.00 35 1016.5
20260905111524 28 297 16.1 40.2 0.00 0.00 0.00 35 1016.5
20260905110520 29 309 17.7 45.1 0.00 0.00 0.00 35 1016.8
20260905105517 28 280 14.5 32.2 0.00 0.00 0.00 37 1016.7
20260905104533 28 297 8.0 20.9 0.00 0.00 0.00 41 1016.8
20260905103529 27 289 14.5 32.2 0.00 0.00 0.00 42 1017.2
20260905102525 27 301 20.9 45.1 0.00 0.00 0.00 42 1017.3
20260905101521 27 328 14.5 45.1 0.00 0.00 0.00 45 1017.1
20260905100518 26 306 12.9 32.2 0.00 0.00 0.00 50 1017.3
20260905095534 26 301 19.3 37.0 0.00 0.00 0.00 50 1017.3
20260905094530 26 295 22.5 45.1 0.00 0.00 0.00 51 1017.3
20260905093527 26 307 25.7 53.1 0.00 0.00 0.00 51 1017.1
20260905092522 27 314 29.0 53.1 0.00 0.00 0.00 49 1016.9
20260905091538 28 318 25.7 56.3 0.00 0.00 0.00 46 1016.4
20260905090533 30 296 19.3 45.1 0.00 0.00 0.00 43 1016.1
20260905085530 29 267 25.7 45.1 0.00 0.00 0.00 43 1015.9
20260905084526 30 261 19.3 37.0 0.00 0.00 0.00 43 1015.7
20260905083522 30 278 20.9 40.2 0.00 0.00 0.00 43 1015.3
20260905082518 30 262 17.7 32.2 0.00 0.00 0.00 43 1015.1
20260905081534 30 260 14.5 32.2 0.00 0.00 0.00 43 1014.9
20260905080530 29 270 9.7 24.1 0.00 0.00 0.00 44 1014.7
20260905075527 28 239 6.4 16.1 0.00 0.00 0.00 45 1014.5
20260905074543 27 247 6.4 16.1 0.00 0.00 0.00 47 1014.5
20260905073515 27 224 4.8 20.9 0.00 0.00 0.00 48 1014.3
20260905072532 27 270 4.8 12.9 0.00 0.00 0.00 49 1014.1
20260905071528 26 238 4.8 16.1 0.00 0.00 0.00 50 1013.8
20260905070604 26 220 4.8 12.9 0.00 0.00 0.00 50 1013.6
20260905065520 26 236 6.4 20.9 0.00 0.00 0.00 51 1013.7
20260905064516 25 240 8.0 16.1 0.00 0.00 0.00 52 1013.8
20260905063532 25 239 6.4 16.1 0.00 0.00 0.00 53 1013.6
20260905062548 24 236 1.6 12.9 0.00 0.00 0.00 54 1013.4
20260905061545 23 245 6.4 12.9 0.00 0.00 0.00 54 1013.8
20260905060520 23 236 6.4 16.1 0.00 0.00 0.00 55 1013.8
20260905055517 23 230 4.8 16.1 0.00 0.00 0.00 55 1013.7
20260905054533 23 221 4.8 16.1 0.00 0.00 0.00 54 1013.6
20260905053529 23 195 4.8 12.9 0.00 0.00 0.00 54 1013.5
20260905052525 22 192 3.2 8.0 0.00 0.00 0.00 56 1013.5
20260905051521 21 184 1.6 3.2 0.00 0.00 0.00 59 1013.5
20260905050518 21 171 1.6 8.0 0.00 0.00 0.00 60 1013.4
20260905045555 20 187 0.0 8.0 0.00 0.00 0.00 61 1013.5
20260905044531 19 183 0.0 3.2 0.00 0.00 0.00 62 1013.4
20260905043527 18 173 0.0 3.2 0.00 0.00 0.00 64 1013.2
20260905042524 18 189 0.0 3.2 0.00 0.00 0.00 65 1013.1
20260905041520 18 167 0.0 3.2 0.00 0.00 0.00 65 1013.1
20260905040516 18 169 0.0 3.2 0.00 0.00 0.00 65 1013.1
20260905035553 18 175 1.6 8.0 0.00 0.00 0.00 64 1013.0
20260905034529 18 169 1.6 3.2 0.00 0.00 0.00 63 1012.9
20260905033525 18 175 0.0 3.2 0.00 0.00 0.00 63 1012.9
20260905032521 18 182 3.2 8.0 0.00 0.00 0.00 63 1012.8
20260905031517 18 185 1.6 3.2 0.00 0.00 0.00 63 1012.9
20260905030534 19 194 1.6 8.0 0.00 0.00 0.00 63 1013.0
20260905025530 19 191 3.2 8.0 0.00 0.00 0.00 62 1012.9
20260905024526 19 186 0.0 8.0 0.00 0.00 0.00 62 1012.9
20260905023522 19 191 1.6 3.2 0.00 0.00 0.00 62 1012.8
20260905022539 19 165 0.0 3.2 0.00 0.00 0.00 62 1013.0
20260905021535 19 171 1.6 3.2 0.00 0.00 0.00 62 1012.8
20260905020531 20 191 0.0 3.2 0.00 0.00 0.00 62 1012.8
20260905015527 20 168 0.0 3.2 0.00 0.00 0.00 61 1012.8
20260905014524 20 189 3.2 8.0 0.00 0.00 0.00 60 1012.6
20260905013520 20 186 3.2 12.9 0.00 0.00 0.00 60 1012.8
20260905012557 20 191 3.2 12.9 0.00 0.00 0.00 61 1012.8
20260905011553 20 183 3.2 8.0 0.00 0.00 0.00 61 1012.9